Home   Weather   Ålgård   Past weeks

Flag for Norway Past Weather in Ålgård, Norway — Yesterday and Last 2 Weeks

Now
59 °F

Passing clouds.


Feels Like: 55 °F
Forecast: 54 / 62 °F
Wind: 24 mph from Southwest

Location: Stavanger / Sola

Current Time: Sep 28, 2016 at 3:48:54 AM

Latest Report: Sep 28, 2016 at 2:50 AM


Visibility: 4 mi

Pressure: 29.65 "Hg

Humidity: 77%

Dew Point: 52 °F

Location of ÅlgårdLocation

Past Weather in Ålgård — Graph

°F

Ålgård Temperature Yesterday

Maximum temperature yesterday: 61 °F (at 11:50 AM)
Minimum temperature yesterday: 55 °F (at 12:50 AM)
Average temperature yesterday: 58 °F

High & Low Weather Summary for the Past Weeks

 TemperatureHumidityPressure
High79 °F (Sep 13, 2:50 PM)100% (Sep 20, 2:50 AM)30.24 "Hg (Sep 20, 2:50 AM)
Low52 °F (Sep 23, 9:50 PM)44% (Sep 25, 4:20 PM)29.68 "Hg (Sep 28, 1:50 AM)
Average63 °F76%30.07 "Hg
* Reported Sep 13 1:50 AM — Sep 28 1:50 AM, Ålgård, Weather by CustomWeather, © 2016

Note: Actual official high and low records may vary slightly from our data, if they occured in-between our weather recording intervals... More about our weather records

Advertising

Ålgård Weather History for the Previous 24 Hours

Scroll right to see more
 ConditionsComfort  
Time TempWeatherWind HumidityBarometerVisibility
1:50 AM
Wed, Sep 28
59 °FPartly cloudy.21 mph77%29.68 "Hg5 mi
12:50 AM59 °FPassing clouds.18 mph77%29.71 "Hg5 mi
11:50 PM
Tue, Sep 27
59 °FPassing clouds.16 mph77%29.74 "Hg6 mi
11:20 PM59 °FPassing clouds.17 mph77%29.77 "Hg6 mi
10:50 PM59 °FPartly cloudy.14 mph82%29.77 "Hg6 mi
10:20 PM59 °FPassing clouds.12 mph77%29.77 "Hg6 mi
9:50 PM59 °FPassing clouds.9 mph68%29.80 "HgN/A
9:20 PM59 °FPassing clouds.9 mph72%29.80 "HgN/A
8:50 PM59 °FPassing clouds.12 mph72%29.80 "HgN/A
8:20 PM59 °FPassing clouds.12 mph72%29.80 "HgN/A
7:50 PM55 °FScattered showers. Partly cloudy.12 mph82%29.80 "Hg6 mi
7:20 PM61 °FScattered showers. Partly cloudy.26 mph88%29.77 "Hg5 mi
6:50 PM61 °FScattered showers. Broken clouds.26 mph88%29.77 "Hg6 mi
6:20 PM57 °FRain showers. Fog.29 mph100%29.74 "Hg1 mi
5:50 PM57 °FRain showers. Fog.32 mph88%29.74 "Hg1 mi
5:20 PM57 °FRain showers. Fog.31 mph94%29.77 "Hg1 mi
4:50 PM59 °FRain showers. Fog.31 mph88%29.77 "Hg2 mi
4:20 PM59 °FRain showers. Broken clouds.29 mph88%29.80 "Hg4 mi
3:50 PM61 °FSprinkles. Broken clouds.25 mph83%29.86 "HgN/A
3:20 PM61 °FRain showers. Broken clouds.23 mph83%29.89 "Hg4 mi
2:50 PM61 °FSprinkles. Broken clouds.25 mph83%29.92 "HgN/A
2:20 PM61 °FScattered showers. Broken clouds.24 mph83%29.95 "HgN/A
1:50 PM61 °FScattered showers. Broken clouds.21 mph83%29.98 "HgN/A
1:20 PM59 °FRain showers. Broken clouds.21 mph88%29.98 "Hg6 mi
12:20 PM61 °FScattered showers. Broken clouds.20 mph83%30.01 "HgN/A
11:50 AM61 °FScattered showers. Broken clouds.20 mph83%30.04 "HgN/A
11:20 AM59 °FScattered showers. Broken clouds.17 mph88%30.04 "HgN/A
10:20 AM59 °FRain showers. Broken clouds.16 mph82%30.07 "HgN/A
9:50 AM59 °FScattered showers. Broken clouds.15 mph82%30.07 "HgN/A
9:20 AM59 °FSprinkles. Broken clouds.14 mph82%30.09 "HgN/A
8:50 AM59 °FPartly sunny.14 mph77%30.09 "HgN/A
8:20 AM59 °FBroken clouds.14 mph77%30.09 "HgN/A
7:50 AM57 °FPartly sunny.14 mph82%30.09 "HgN/A
7:20 AM57 °FPassing clouds.14 mph82%30.12 "HgN/A
6:50 AM57 °FPartly cloudy.12 mph77%30.12 "HgN/A
6:20 AM57 °FPassing clouds.12 mph82%30.12 "HgN/A
5:50 AM55 °FPartly cloudy.12 mph88%30.12 "HgN/A
4:50 AM55 °FPassing clouds.12 mph82%30.15 "HgN/A
3:50 AM55 °FPartly cloudy.8 mph82%30.15 "HgN/A
Weather by CustomWeather, © 2016

See weather overviewHow to use our weather pages